Time,TemperatureF,DewpointF,PressureIn,WindDirection,WindDirectionDegrees,WindSpeedMPH,WindSpeedGustMPH,Humidity,HourlyPrecipIn,Conditions,Clouds,dailyrainin,SoftwareType,DateUTC
2013-03-10 00:14:00,28.2,27.7,30.38,East,90,0.0,-999.0,98,-99.99,,,0.00,Acu-Link.com,2013-03-10 05:14:00,
2013-03-10 00:30:00,28.2,27.7,30.38,East,90,0.0,-999.0,98,-99.99,,,0.00,Acu-Link.com,2013-03-10 05:30:00,
2013-03-10 00:45:00,28.9,28.4,30.38,East,90,0.0,-999.0,98,-99.99,,,0.00,Acu-Link.com,2013-03-10 05:45:00,
2013-03-10 01:00:00,28.9,28.4,30.38,ESE,112,1.6,-999.0,98,-99.99,,,0.00,Acu-Link.com,2013-03-10 06:00:00,
2013-03-10 01:16:00,28.8,28.3,30.39,ENE,67,1.6,-999.0,98,-99.99,,,0.00,Acu-Link.com,2013-03-10 06:16:00,
2013-03-10 01:31:00,28.8,28.3,30.39,ESE,112,1.1,-999.0,98,-99.99,,,0.00,Acu-Link.com,2013-03-10 06:31:00,
2013-03-10 01:46:00,28.4,27.9,30.39,ENE,67,1.1,-999.0,98,-99.99,,,0.00,Acu-Link.com,2013-03-10 06:46:00,
2013-03-10 03:02:00,28.2,27.7,30.39,East,90,1.6,-999.0,98,-99.99,,,0.00,Acu-Link.com,2013-03-10 07:02:00,
2013-03-10 03:17:00,28.4,27.9,30.38,ESE,112,1.1,-999.0,98,-99.99,,,0.00,Acu-Link.com,2013-03-10 07:17:00,
2013-03-10 03:32:00,28.9,28.4,30.38,East,90,3.1,-999.0,98,-99.99,,,0.00,Acu-Link.com,2013-03-10 07:32:00,
2013-03-10 03:47:00,28.9,28.4,30.39,ESE,112,3.1,-999.0,98,-99.99,,,0.00,Acu-Link.com,2013-03-10 07:47:00,
2013-03-10 04:02:00,29.1,28.6,30.39,ESE,112,0.0,-999.0,98,-99.99,,,0.00,Acu-Link.com,2013-03-10 08:02:00,
2013-03-10 04:18:00,28.9,28.4,30.39,SE,135,3.1,-999.0,98,-99.99,,,0.00,Acu-Link.com,2013-03-10 08:18:00,
2013-03-10 04:33:00,28.8,28.3,30.39,East,90,2.7,-999.0,98,-99.99,,,0.00,Acu-Link.com,2013-03-10 08:33:00,
2013-03-10 04:48:00,28.8,28.3,30.39,NE,45,1.1,-999.0,98,-99.99,,,0.00,Acu-Link.com,2013-03-10 08:48:00,
2013-03-10 05:03:00,28.6,28.1,30.40,SSW,202,3.8,-999.0,98,-99.99,,,0.00,Acu-Link.com,2013-03-10 09:03:00,
2013-03-10 05:19:00,28.4,27.9,30.40,ENE,67,5.8,-999.0,98,-99.99,,,0.00,Acu-Link.com,2013-03-10 09:19:00,
2013-03-10 05:34:00,28.4,27.9,30.39,ENE,67,1.6,-999.0,98,-99.99,,,0.00,Acu-Link.com,2013-03-10 09:34:00,
2013-03-10 05:49:00,28.4,27.9,30.39,ENE,67,1.6,-999.0,98,-99.99,,,0.00,Acu-Link.com,2013-03-10 09:49:00,
2013-03-10 06:05:00,28.4,27.9,30.40,East,90,1.6,-999.0,98,-99.99,,,0.00,Acu-Link.com,2013-03-10 10:05:00,
2013-03-10 06:20:00,28.2,27.7,30.40,NE,45,0.0,-999.0,98,-99.99,,,0.00,Acu-Link.com,2013-03-10 10:20:00,
2013-03-10 06:35:00,27.9,27.4,30.40,NNE,22,0.0,-999.0,98,-99.99,,,0.00,Acu-Link.com,2013-03-10 10:35:00,
2013-03-10 06:50:00,27.9,27.4,30.40,ENE,67,1.1,-999.0,98,-99.99,,,0.00,Acu-Link.com,2013-03-10 10:50:00,
2013-03-10 07:06:00,27.9,27.4,30.40,ESE,112,2.2,-999.0,98,-99.99,,,0.00,Acu-Link.com,2013-03-10 11:06:00,
2013-03-10 07:21:00,28.2,27.7,30.40,ESE,112,2.2,-999.0,98,-99.99,,,0.00,Acu-Link.com,2013-03-10 11:21:00,
2013-03-10 07:36:00,28.8,28.3,30.40,ESE,112,2.7,-999.0,98,-99.99,,,0.00,Acu-Link.com,2013-03-10 11:36:00,
2013-03-10 07:51:00,30.0,29.5,30.41,ESE,112,2.7,-999.0,98,-99.99,,,0.00,Acu-Link.com,2013-03-10 11:51:00,
2013-03-10 08:07:00,31.3,30.8,30.42,ESE,112,2.2,-999.0,98,-99.99,,,0.00,Acu-Link.com,2013-03-10 12:07:00,
2013-03-10 08:22:00,32.0,31.5,30.42,WNW,292,0.0,-999.0,98,-99.99,,,0.00,Acu-Link.com,2013-03-10 12:22:00,
2013-03-10 08:37:00,32.9,32.4,30.42,ESE,112,3.8,-999.0,98,-99.99,,,0.00,Acu-Link.com,2013-03-10 12:37:00,
2013-03-10 08:53:00,34.3,33.8,30.43,East,90,2.7,-999.0,98,-99.99,,,0.00,Acu-Link.com,2013-03-10 12:53:00,
2013-03-10 09:08:00,35.1,34.6,30.43,SSW,202,1.1,-999.0,98,-99.99,,,0.00,Acu-Link.com,2013-03-10 13:08:00,
2013-03-10 09:23:00,35.2,34.7,30.43,ENE,67,2.2,-999.0,98,-99.99,,,0.00,Acu-Link.com,2013-03-10 13:23:00,
2013-03-10 09:38:00,35.8,35.3,30.43,ENE,67,2.7,-999.0,98,-99.99,,,0.00,Acu-Link.com,2013-03-10 13:38:00,
2013-03-10 09:54:00,37.0,36.5,30.43,East,90,4.7,-999.0,98,-99.99,,,0.00,Acu-Link.com,2013-03-10 13:54:00,
2013-03-10 10:09:00,37.8,37.2,30.43,ESE,112,2.7,-999.0,98,-99.99,,,0.00,Acu-Link.com,2013-03-10 14:09:00,
2013-03-10 10:24:00,38.1,37.6,30.43,SSW,202,0.0,-999.0,98,-99.99,,,0.00,Acu-Link.com,2013-03-10 14:24:00,
2013-03-10 10:40:00,38.5,38.0,30.43,SSW,202,2.7,-999.0,98,-99.99,,,0.00,Acu-Link.com,2013-03-10 14:40:00,
2013-03-10 10:55:00,38.8,38.3,30.43,NNE,22,1.1,-999.0,98,-99.99,,,0.00,Acu-Link.com,2013-03-10 14:55:00,
2013-03-10 11:10:00,39.4,38.9,30.43,SW,225,2.2,-999.0,98,-99.99,,,0.00,Acu-Link.com,2013-03-10 15:10:00,
2013-03-10 11:26:00,39.9,39.4,30.44,SW,225,4.7,-999.0,98,-99.99,,,0.00,Acu-Link.com,2013-03-10 15:26:00,
2013-03-10 11:41:00,39.2,38.7,30.43,SSW,202,3.1,-999.0,98,-99.99,,,0.00,Acu-Link.com,2013-03-10 15:41:00,
2013-03-10 11:56:00,39.6,39.0,30.43,NE,45,0.0,-999.0,98,-99.99,,,0.00,Acu-Link.com,2013-03-10 15:56:00,
2013-03-10 12:11:00,39.9,39.4,30.43,West,270,2.2,-999.0,98,-99.99,,,0.00,Acu-Link.com,2013-03-10 16:11:00,
2013-03-10 12:27:00,40.3,39.8,30.42,ESE,112,1.6,-999.0,98,-99.99,,,0.00,Acu-Link.com,2013-03-10 16:27:00,
2013-03-10 12:42:00,39.9,39.4,30.42,West,270,3.8,-999.0,98,-99.99,,,0.00,Acu-Link.com,2013-03-10 16:42:00,
2013-03-10 12:57:00,40.1,39.6,30.41,WSW,247,5.1,-999.0,98,-99.99,,,0.00,Acu-Link.com,2013-03-10 16:57:00,
2013-03-10 13:13:00,40.5,39.9,30.42,WSW,247,5.1,-999.0,98,-99.99,,,0.00,Acu-Link.com,2013-03-10 17:13:00,
2013-03-10 13:28:00,40.3,39.8,30.41,ENE,67,0.0,-999.0,98,-99.99,,,0.00,Acu-Link.com,2013-03-10 17:28:00,
2013-03-10 13:43:00,39.7,39.2,30.40,WNW,292,4.7,-999.0,98,-99.99,,,0.00,Acu-Link.com,2013-03-10 17:43:00,
2013-03-10 13:58:00,39.9,39.4,30.40,WSW,247,2.7,-999.0,98,-99.99,,,0.00,Acu-Link.com,2013-03-10 17:58:00,
2013-03-10 14:14:00,39.9,39.4,30.40,ESE,112,0.0,-999.0,98,-99.99,,,0.00,Acu-Link.com,2013-03-10 18:14:00,
2013-03-10 14:29:00,39.9,39.4,30.40,SSE,157,2.7,-999.0,98,-99.99,,,0.00,Acu-Link.com,2013-03-10 18:29:00,
2013-03-10 14:44:00,40.3,39.8,30.39,South,180,1.1,-999.0,98,-99.99,,,0.00,Acu-Link.com,2013-03-10 18:44:00,
2013-03-10 14:59:00,40.5,39.9,30.39,SSW,202,5.8,-999.0,98,-99.99,,,0.00,Acu-Link.com,2013-03-10 18:59:00,
2013-03-10 15:14:00,41.0,40.5,30.38,South,180,1.6,-999.0,98,-99.99,,,0.00,Acu-Link.com,2013-03-10 19:14:00,
2013-03-10 15:30:00,39.7,39.2,30.38,East,90,1.6,-999.0,98,-99.99,,,0.00,Acu-Link.com,2013-03-10 19:30:00,
2013-03-10 15:45:00,39.2,38.7,30.37,West,270,4.7,-999.0,98,-99.99,,,0.00,Acu-Link.com,2013-03-10 19:45:00,
2013-03-10 16:00:00,39.6,39.0,30.37,West,270,1.1,-999.0,98,-99.99,,,0.00,Acu-Link.com,2013-03-10 20:00:00,
2013-03-10 16:16:00,40.1,39.6,30.38,NNE,22,2.2,-999.0,98,-99.99,,,0.00,Acu-Link.com,2013-03-10 20:16:00,
2013-03-10 16:31:00,39.2,38.7,30.37,WSW,247,4.3,-999.0,98,-99.99,,,0.00,Acu-Link.com,2013-03-10 20:31:00,
2013-03-10 16:46:00,38.5,38.0,30.37,North,0,0.0,-999.0,98,-99.99,,,0.00,Acu-Link.com,2013-03-10 20:46:00,
2013-03-10 17:02:00,38.7,38.1,30.37,SW,225,2.7,-999.0,98,-99.99,,,0.00,Acu-Link.com,2013-03-10 21:02:00,
2013-03-10 17:32:00,37.6,37.1,30.36,SE,135,0.0,-999.0,98,-99.99,,,0.00,Acu-Link.com,2013-03-10 21:32:00,
2013-03-10 17:47:00,37.0,36.5,30.37,WSW,247,3.1,-999.0,98,-99.99,,,0.00,Acu-Link.com,2013-03-10 21:47:00,
2013-03-10 18:03:00,36.7,36.2,30.36,WSW,247,3.1,-999.0,98,-99.99,,,0.00,Acu-Link.com,2013-03-10 22:03:00,
2013-03-10 18:18:00,36.1,35.6,30.36,SW,225,1.6,-999.0,98,-99.99,,,0.00,Acu-Link.com,2013-03-10 22:18:00,
2013-03-10 18:33:00,36.0,35.5,30.36,West,270,3.8,-999.0,98,-99.99,,,0.00,Acu-Link.com,2013-03-10 22:33:00,
2013-03-10 18:49:00,35.6,35.1,30.37,SSW,202,1.6,-999.0,98,-99.99,,,0.00,Acu-Link.com,2013-03-10 22:49:00,
2013-03-10 19:04:00,35.2,34.7,30.36,SSE,157,0.0,-999.0,98,-99.99,,,0.00,Acu-Link.com,2013-03-10 23:04:00,
2013-03-10 19:19:00,35.1,34.6,30.36,ESE,112,0.0,-999.0,98,-99.99,,,0.00,Acu-Link.com,2013-03-10 23:19:00,
2013-03-10 19:35:00,35.1,34.6,30.36,East,90,1.1,-999.0,98,-99.99,,,0.00,Acu-Link.com,2013-03-10 23:35:00,
2013-03-10 19:50:00,35.4,34.9,30.37,East,90,1.1,-999.0,98,-99.99,,,0.00,Acu-Link.com,2013-03-10 23:50:00,
2013-03-10 20:05:00,35.2,34.7,30.36,NW,315,1.1,-999.0,98,-99.99,,,0.00,Acu-Link.com,2013-03-11 00:05:00,
2013-03-10 20:20:00,35.2,34.7,30.36,ESE,112,0.0,-999.0,98,-99.99,,,0.00,Acu-Link.com,2013-03-11 00:20:00,
2013-03-10 20:35:00,35.1,34.6,30.36,ESE,112,0.0,-999.0,98,-99.99,,,0.00,Acu-Link.com,2013-03-11 00:35:00,
2013-03-10 21:06:00,34.2,33.7,30.37,SE,135,0.0,-999.0,98,-99.99,,,0.00,Acu-Link.com,2013-03-11 01:06:00,
2013-03-10 21:21:00,34.2,33.7,30.36,SE,135,0.0,-999.0,98,-99.99,,,0.00,Acu-Link.com,2013-03-11 01:21:00,
2013-03-10 21:37:00,34.2,33.7,30.36,SW,225,0.0,-999.0,98,-99.99,,,0.00,Acu-Link.com,2013-03-11 01:37:00,
2013-03-10 21:52:00,34.7,34.2,30.35,SW,225,0.0,-999.0,98,-99.99,,,0.00,Acu-Link.com,2013-03-11 01:52:00,
2013-03-10 22:23:00,35.1,34.6,30.34,SSE,157,0.0,-999.0,98,-99.99,,,0.00,Acu-Link.com,2013-03-11 02:23:00,
2013-03-10 22:38:00,35.1,34.6,30.35,ESE,112,0.0,-999.0,98,-99.99,,,0.00,Acu-Link.com,2013-03-11 02:38:00,
2013-03-10 22:53:00,35.1,34.6,30.34,NE,45,0.0,-999.0,98,-99.99,,,0.00,Acu-Link.com,2013-03-11 02:53:00,
2013-03-10 23:08:00,35.1,34.6,30.34,SSE,157,0.0,-999.0,98,-99.99,,,0.00,Acu-Link.com,2013-03-11 03:08:00,
2013-03-10 23:23:00,35.2,34.7,30.34,West,270,1.1,-999.0,98,-99.99,,,0.00,Acu-Link.com,2013-03-11 03:23:00,
2013-03-10 23:39:00,35.4,34.9,30.34,SSW,202,0.0,-999.0,98,-99.99,,,0.00,Acu-Link.com,2013-03-11 03:39:00,
2013-03-10 23:54:00,35.4,34.9,30.33,SSW,202,0.0,-999.0,98,-99.99,,,0.00,Acu-Link.com,2013-03-11 03:54:00,